TimeEST,TemperatureF,Dew PointF,Humidity,Sea Level PressureIn,VisibilityMPH,Wind Direction,Wind SpeedMPH,Gust SpeedMPH,PrecipitationIn,Events,Conditions,WindDirDegrees,DateUTC
12:53 AM,45.0,37.9,76,30.01,10.0,SW,4.6,-,N/A,,Clear,220,2012-02-22 05:53:00
1:53 AM,43.0,37.9,82,30.00,10.0,Calm,Calm,-,N/A,,Clear,0,2012-02-22 06:53:00
2:53 AM,41.0,37.9,89,29.99,10.0,SSW,4.6,-,N/A,,Clear,200,2012-02-22 07:53:00
3:53 AM,44.1,41.0,89,29.97,10.0,SW,4.6,-,N/A,,Clear,220,2012-02-22 08:53:00
4:53 AM,44.1,42.1,93,29.96,10.0,WSW,4.6,-,N/A,,Clear,250,2012-02-22 09:53:00
6:53 AM,46.0,44.1,93,29.96,6.0,WSW,6.9,-,N/A,,Clear,250,2012-02-22 11:53:00
7:26 AM,46.4,44.6,93,29.94,4.0,West,3.5,-,N/A,,Scattered Clouds,280,2012-02-22 12:26:00
7:37 AM,46.4,44.6,93,29.94,3.0,WNW,3.5,-,N/A,,Mostly Cloudy,290,2012-02-22 12:37:00
7:53 AM,46.9,46.0,97,29.94,3.0,Calm,Calm,-,N/A,,Overcast,0,2012-02-22 12:53:00
8:39 AM,50.0,48.2,94,29.94,4.0,WSW,4.6,-,N/A,,Overcast,240,2012-02-22 13:39:00
8:53 AM,50.0,48.9,96,29.95,4.0,WSW,8.1,-,N/A,,Overcast,240,2012-02-22 13:53:00
9:40 AM,51.8,50.0,94,29.93,5.0,WSW,11.5,-,N/A,,Overcast,240,2012-02-22 14:40:00
9:53 AM,53.1,50.0,89,29.93,5.0,WSW,10.4,-,N/A,,Overcast,240,2012-02-22 14:53:00
10:53 AM,57.9,51.1,78,29.92,10.0,WSW,13.8,21.9,N/A,,Overcast,240,2012-02-22 15:53:00
10:57 AM,57.2,50.0,77,29.92,10.0,SW,17.3,21.9,N/A,,Overcast,230,2012-02-22 15:57:00
11:53 AM,62.1,48.9,62,29.91,10.0,SW,23.0,31.1,N/A,,Mostly Cloudy,230,2012-02-22 16:53:00
12:08 PM,62.6,48.2,59,29.91,10.0,SW,19.6,32.2,N/A,,Mostly Cloudy,230,2012-02-22 17:08:00
12:18 PM,60.8,46.4,59,29.90,10.0,WSW,19.6,28.8,N/A,,Mostly Cloudy,250,2012-02-22 17:18:00
12:28 PM,62.6,46.4,55,29.89,10.0,SW,16.1,28.8,N/A,,Mostly Cloudy,230,2012-02-22 17:28:00
12:53 PM,64.9,46.9,52,29.85,10.0,SW,11.5,28.8,N/A,,Clear,230,2012-02-22 17:53:00
1:53 PM,66.9,45.0,45,29.80,10.0,SW,17.3,29.9,N/A,,Partly Cloudy,230,2012-02-22 18:53:00
2:53 PM,66.0,46.9,50,29.76,10.0,SW,24.2,28.8,N/A,,Partly Cloudy,230,2012-02-22 19:53:00
3:53 PM,64.9,45.0,48,29.74,10.0,SW,12.7,25.3,N/A,,Clear,220,2012-02-22 20:53:00
4:53 PM,63.0,46.0,54,29.73,10.0,SW,12.7,-,N/A,,Clear,220,2012-02-22 21:53:00
5:53 PM,62.1,46.0,56,29.71,10.0,SW,15.0,20.7,N/A,,Clear,220,2012-02-22 22:53:00
6:53 PM,60.1,46.9,62,29.70,10.0,SSW,11.5,-,N/A,,Clear,200,2012-02-22 23:53:00
7:53 PM,59.0,48.9,69,29.65,10.0,South,11.5,-,N/A,,Scattered Clouds,190,2012-02-23 00:53:00
8:53 PM,57.9,48.0,70,29.63,10.0,SW,6.9,-,N/A,,Mostly Cloudy,220,2012-02-23 01:53:00
9:53 PM,59.0,48.0,67,29.62,10.0,SW,10.4,-,N/A,,Mostly Cloudy,220,2012-02-23 02:53:00
10:42 PM,57.2,51.8,82,29.64,7.0,WSW,10.4,20.7,0.01,Rain-Thunderstorm,Rain,250,2012-02-23 03:42:00
10:53 PM,57.0,52.0,83,29.63,1.5,West,8.1,23.0,0.19,Rain-Thunderstorm,Heavy Thunderstorms and Rain,260,2012-02-23 03:53:00
11:02 PM,55.4,53.6,94,29.64,3.0,SW,11.5,17.3,0.01,Rain-Thunderstorm,Light Thunderstorms and Rain,230,2012-02-23 04:02:00
11:35 PM,55.4,51.8,88,29.65,6.0,WSW,13.8,-,0.06,Rain,Light Rain,250,2012-02-23 04:35:00
11:53 PM,55.9,52.0,87,29.61,10.0,West,10.4,-,0.06,Rain,Light Rain,260,2012-02-23 04:53:00